Flag for U.S.A. Weather past 2 weeks in Ann Arbor, Michigan, U.S.A.

Now
80 °F

Passing clouds.


Feels Like: 85 °F
Forecast: 62 / 83 °F
Wind: 7 mph from West

Location: Ann Arbor Municipal Airport

Current Time: Jul 29, 2015 at 8:56:06 PM

Latest Report: Jul 29, 2015 at 7:53 PM


Visibility: 10 mi

Pressure: 29.88 "Hg

Humidity: 85%

Dew point: 75 °F

Location of Ann ArborLocation

Historic Weather in Ann Arbor — Graph

°F

Ann Arbor temperature yesterday

Maximum temperature yesterday: 89 °F (at 3:53 PM)
Minimum temperature yesterday: 59 °F (at 4:57 AM)
Average temperature yesterday: 74 °F

Past Weeks' High & Low Weather Summary

 TemperatureHumidityPressure
High89 °F (Jul 18, 12:53 PM)100% (Jul 16, 6:53 AM)30.10 "Hg (Jul 16, 6:53 AM)
Low48 °F (Jul 16, 5:53 AM)32% (Jul 15, 6:53 PM)29.61 "Hg (Jul 14, 7:00 PM)
Average72 °F72%29.92 "Hg
* Reported Jul 14 7:00 PM — Jul 29 7:53 PM, Ann Arbor, Weather by CustomWeather, © 2015

Note: Actual official high and low records may vary slightly from our data, if they occured in-between our weather recording intervals... More about our weather records

Advertising

Ann Arbor weather history for previous 24 hours

 ConditionsComfort  
Time TempWeatherWind HumidityBarometerVisibility
7:53 PM
Wed, Jul 29
80 °FPassing clouds.7 mph85%29.88 "Hg10 mi
6:53 PM81 °FSunny.10 mph79%29.88 "Hg10 mi
5:53 PM80 °FBroken clouds.7 mph81%29.88 "Hg10 mi
4:53 PM80 °FPassing clouds.9 mph85%29.88 "Hg10 mi
3:53 PM78 °FThunderstorms. Scattered clouds.9 mph84%29.89 "Hg10 mi
2:53 PM86 °FThundershowers. Broken clouds.9 mph63%29.87 "Hg10 mi
1:53 PM86 °FBroken clouds.9 mph67%29.89 "Hg10 mi
12:53 PM87 °FPartly sunny.9 mph63%29.91 "Hg10 mi
11:53 AM85 °FSunny.7 mph68%29.92 "Hg10 mi
10:53 AM84 °FSunny.9 mph67%29.93 "Hg10 mi
9:53 AM80 °FSunny.5 mph69%29.95 "Hg10 mi
8:53 AM76 °FPartly sunny.No wind80%29.96 "Hg10 mi
7:53 AM69 °FSunny.No wind96%29.95 "Hg8 mi
6:53 AM65 °FClear.No wind97%29.95 "Hg7 mi
5:53 AM64 °FFog.No wind100%29.94 "Hg6 mi
4:53 AM63 °FClear.No wind97%29.93 "Hg10 mi
4:04 AM62 °FFog.No wind100%29.97 "Hg4 mi
3:02 AM61 °FFog.No wind97%29.99 "Hg1 mi
2:57 AM60 °FFog.No wind100%29.99 "Hg3 mi
2:02 AM61 °FFog.No wind100%30.00 "Hg1 mi
1:55 AM62 °FFog.No wind93%30.00 "Hg3 mi
1:04 AM63 °FFog.No wind97%30.01 "Hg1 mi
11:53 PM
Tue, Jul 28
65 °FClear.No wind94%30.00 "Hg10 mi
10:53 PM65 °FClear.3 mph91%30.00 "Hg10 mi
9:53 PM70 °FSunny.5 mph81%29.96 "Hg9 mi
8:53 PM76 °FSunny.No wind64%29.96 "Hg10 mi
Weather by CustomWeather, © 2015

See weather overviewHow to use our weather pages